^^
Station Historical Data
Daily Summary for January 04, 2018 Units:  Metric    English   Both
« Previous Day
Next Day »
Daily Weekly Monthly Yearly Custom
  High: Low: Average:
Temperature: -17.8 °C 17.2 °C 25 °C
Dew Point: -17.8 °C 3.2 °C 8.7 °C
Humidity: Humidity% 14% 38%
Wind Speed: 0km/h 0km/h 4.2km/h
Wind Gust: 0km/h - -
Wind- - ESE
Pressure: 0 hPa 1003.9 hPa -
Precipitation: 0 mm    
Historical Graphs
 
 
Tabular Data for January 04, 2018
Time Temperature Dew Point Pressure Wind Wind Speed Wind Gust Humidity Rainfall Rate (Hourly) solar Conditions
-17.8 °C -17.8 °C 0 hPa Calm     Humidity% 0 mm SolarRadiationWatts/m^2 W/m2 Conditions
00:02 20.7 °C 6.2 °C 1022.9 hPa NNE 6.4 km/h 19.3 km/h 39% 0 mm 19.0 W/m2
00:07 20.7 °C 6.6 °C 1022.9 hPa NE 7.9 km/h 12.9 km/h 40% 0 mm 19.0 W/m2
00:11 20.7 °C 6.6 °C 1023.2 hPa North 3.2 km/h 17.7 km/h 40% 0 mm 21.0 W/m2
00:16 20.7 °C 6.6 °C 1023.2 hPa NE 1.4 km/h 14.5 km/h 40% 0 mm 21.0 W/m2
00:21 20.8 °C 7.1 °C 1023.2 hPa ENE 14.3 km/h 19.3 km/h 41% 0 mm 23.0 W/m2
00:23 20.8 °C 7.1 °C 1023.2 hPa ENE 4.7 km/h 19.3 km/h 41% 0 mm 23.0 W/m2
00:28 20.8 °C 7.4 °C 1023.6 hPa ENE 1.4 km/h 16.1 km/h 42% 0 mm 25.0 W/m2
00:33 20.9 °C 7.5 °C 1007.7 hPa ENE 13 km/h 17.7 km/h 42% 0 mm 26.0 W/m2
00:39 20.9 °C 7.5 °C 1023.6 hPa ENE 1.4 km/h 12.9 km/h 42% 0 mm 26.0 W/m2
00:45 21.1 °C 8 °C 1023.6 hPa ENE 6.4 km/h 9.7 km/h 43% 0 mm 39.0 W/m2
00:56 21.4 °C 8.3 °C 1023.6 hPa NE 7.9 km/h 16.1 km/h 43% 0 mm 371.0 W/m2
00:59 21.7 °C 8.2 °C 1007.7 hPa Calm   14.5 km/h 42% 0 mm 380.0 W/m2
01:01 21.8 °C 8.3 °C 1023.6 hPa Calm   8 km/h 42% 0 mm 390.0 W/m2
01:07 22.2 °C 8.7 °C 1023.6 hPa East 3.2 km/h 14.5 km/h 42% 0 mm 413.0 W/m2
01:12 22.6 °C 9 °C 1023.9 hPa ESE 6.4 km/h 11.3 km/h 42% 0 mm 432.0 W/m2
01:17 22.9 °C 8.9 °C 1023.9 hPa NE 3.2 km/h 12.9 km/h 41% 0 mm 454.0 W/m2
01:22 23.3 °C 9.3 °C 1023.9 hPa NE 6.4 km/h 12.9 km/h 41% 0 mm 473.0 W/m2
01:28 23.6 °C 9.6 °C 1023.9 hPa North 6.4 km/h 9.7 km/h 41% 0 mm 494.0 W/m2
01:33 23.9 °C 9.8 °C 1023.6 hPa Calm   11.3 km/h 41% 0 mm 513.0 W/m2
01:36 24.2 °C 10.1 °C 1023.6 hPa NE 1.4 km/h 6.4 km/h 41% 0 mm 522.0 W/m2
01:37 24.2 °C 10.1 °C 1023.6 hPa NE 3.2 km/h 6.4 km/h 41% 0 mm 529.0 W/m2
01:38 24.3 °C 10.2 °C 1023.6 hPa SE 7.9 km/h 14.5 km/h 41% 0 mm 533.0 W/m2
01:43 24.8 °C 9.9 °C 1023.6 hPa ENE 4.7 km/h 14.5 km/h 39% 0 mm 552.0 W/m2
01:48 24.9 °C 10.4 °C 1023.9 hPa ENE 9.7 km/h 11.3 km/h 40% 0 mm 570.0 W/m2
01:52 25.1 °C 10.2 °C 1023.6 hPa NE 4.7 km/h 12.9 km/h 39% 0 mm 580.0 W/m2
01:53 25.2 °C 10.3 °C 1023.6 hPa ESE 3.2 km/h 12.9 km/h 39% 0 mm 585.0 W/m2
01:58 25.2 °C 10.3 °C 1023.6 hPa ESE 11.1 km/h 14.5 km/h 39% 0 mm 605.0 W/m2
02:06 25.6 °C 10.2 °C 1023.6 hPa NNE 7.9 km/h 16.1 km/h 38% 0 mm 631.0 W/m2
02:07 25.6 °C 10.2 °C 1023.6 hPa NE 4.7 km/h 12.9 km/h 38% 0 mm 635.0 W/m2
02:11 25.8 °C 10 °C 1023.6 hPa NNW 7.9 km/h 16.1 km/h 37% 0 mm 649.0 W/m2
02:16 26.1 °C 10.3 °C 1023.6 hPa North 1.4 km/h 12.9 km/h 37% 0 mm 666.0 W/m2
02:19 26.2 °C 10.4 °C 1023.6 hPa East 9.7 km/h 9.7 km/h 37% 0 mm 677.0 W/m2
02:25 26.6 °C 10.3 °C 1023.6 hPa NNE 13 km/h 16.1 km/h 36% 0 mm 694.0 W/m2
02:30 26.8 °C 10.1 °C 1023.6 hPa ENE 9.7 km/h 19.3 km/h 35% 0 mm 712.0 W/m2
02:35 26.8 °C 10.1 °C 1023.6 hPa NNW 7.9 km/h 17.7 km/h 35% 0 mm 728.0 W/m2
02:40 26.9 °C 10.1 °C 1023.6 hPa NE 14.3 km/h 14.5 km/h 35% 0 mm 742.0 W/m2
02:42 27.1 °C 10.3 °C 1023.6 hPa NNW 14.3 km/h 25.7 km/h 35% 0 mm 747.0 W/m2
02:43 27.1 °C 10.3 °C 1023.6 hPa ENE 9.7 km/h 14.5 km/h 35% 0 mm 751.0 W/m2
02:46 27.1 °C 10.3 °C 1023.6 hPa ENE 11.1 km/h 16.1 km/h 35% 0 mm 761.0 W/m2
02:52 27.4 °C 10.6 °C 1023.2 hPa ENE 4.7 km/h 12.9 km/h 35% 0 mm 779.0 W/m2
02:57 27.6 °C 10.3 °C 1023.2 hPa NNE 9.7 km/h 19.3 km/h 34% 0 mm 795.0 W/m2
03:02 27.7 °C 10.4 °C 1023.2 hPa NNE 9.7 km/h 20.9 km/h 34% 0 mm 810.0 W/m2
03:08 27.8 °C 10.5 °C 1023.2 hPa ENE 7.9 km/h 16.1 km/h 34% 0 mm 826.0 W/m2
03:13 28.1 °C 10.3 °C 1007.3 hPa NNW 9.7 km/h 17.7 km/h 33% 0 mm 847.0 W/m2
03:19 28.2 °C 9.9 °C 1023.2 hPa ENE 17.7 km/h 17.7 km/h 32% 0 mm 865.0 W/m2
03:23 28.3 °C 10.5 °C 1023.2 hPa ESE 6.4 km/h 20.9 km/h 33% 0 mm 874.0 W/m2
03:24 28.3 °C 10.5 °C 1023.2 hPa ENE 19.5 km/h 19.5 km/h 33% 0 mm 875.0 W/m2
03:30 28.4 °C 10.6 °C 1023.2 hPa North 11.1 km/h 14.5 km/h 33% 0 mm 896.0 W/m2
03:36 28.8 °C 10 °C 1023.2 hPa NNW 7.9 km/h 12.9 km/h 31% 0 mm 281.0 W/m2
03:38 28.8 °C 10 °C 1023.2 hPa ENE 7.9 km/h 9.7 km/h 31% 0 mm 972.0 W/m2
03:44 29.1 °C 10.7 °C 1023.2 hPa East 6.4 km/h 9.7 km/h 32% 0 mm 963.0 W/m2
03:51 29.1 °C 8.7 °C 1022.9 hPa NE 7.9 km/h 9.7 km/h 28% 0 mm 1009.0 W/m2
04:02 29.3 °C 9.4 °C 1023.2 hPa North 7.9 km/h 17.7 km/h 29% 0 mm 793.0 W/m2
04:07 29.6 °C 9.7 °C 1023.2 hPa North 7.9 km/h 16.1 km/h 29% 0 mm 206.0 W/m2
04:12 29.4 °C 9 °C 1023.2 hPa North 17.7 km/h 17.7 km/h 28% 0 mm 218.0 W/m2
04:13 29.3 °C 8.9 °C 1023.2 hPa North 7.9 km/h 17.7 km/h 28% 0 mm 186.0 W/m2
04:18 29 °C 9.2 °C 1023.2 hPa NNE 6.4 km/h 17.7 km/h 29% 0 mm 1130.0 W/m2
04:23 29.2 °C 9.8 °C 1023.2 hPa ENE 7.9 km/h 12.9 km/h 30% 0 mm 1123.0 W/m2
04:28 29.8 °C 9.3 °C 1022.9 hPa NE 11.1 km/h 16.1 km/h 28% 0 mm 1174.0 W/m2
04:33 30.1 °C 9 °C 1022.9 hPa North 7.9 km/h 25.7 km/h 27% 0 mm 1225.0 W/m2
04:40 30.1 °C 9 °C 1022.9 hPa NNE 6.4 km/h 25.7 km/h 27% 0 mm 1153.0 W/m2
04:42 29.9 °C 8.3 °C 1022.9 hPa ENE 11.1 km/h 16.1 km/h 26% 0 mm 244.0 W/m2
04:47 29.8 °C 8.8 °C 1022.9 hPa North 17.7 km/h 27.4 km/h 27% 0 mm 1232.0 W/m2
04:52 30.1 °C 9 °C 1022.9 hPa NNE 1.4 km/h 17.7 km/h 27% 0 mm 1195.0 W/m2
04:56 30.3 °C 8.7 °C 1022.9 hPa North 6.4 km/h 11.3 km/h 26% 0 mm 1179.0 W/m2
05:01 30.8 °C 8.5 °C 1022.6 hPa ESE 6.4 km/h 6.4 km/h 25% 0 mm 1190.0 W/m2
05:07 31.1 °C 7.5 °C 1022.6 hPa NNW 3.2 km/h 8 km/h 23% 0 mm 1209.0 W/m2
05:10 31.2 °C 7.6 °C 1022.9 hPa NNE 6.4 km/h 25.7 km/h 23% 0 mm 1234.0 W/m2
05:16 31.3 °C 7.7 °C 1022.9 hPa North 14.3 km/h 24.1 km/h 23% 0 mm 1206.0 W/m2
05:21 31.2 °C 7.6 °C 1022.9 hPa East 13 km/h 19.3 km/h 23% 0 mm 185.0 W/m2
05:26 30.7 °C 7.2 °C 1022.9 hPa NNE 11.1 km/h 17.7 km/h 23% 0 mm 306.0 W/m2
05:30 30.6 °C 7.1 °C 1022.6 hPa NE 4.7 km/h 19.3 km/h 23% 0 mm 1187.0 W/m2
05:31 30.7 °C 7.2 °C 1022.6 hPa NNW 6.4 km/h 19.3 km/h 23% 0 mm 1188.0 W/m2
05:38 30.8 °C 7.3 °C 1022.6 hPa East 14.3 km/h 14.5 km/h 23% 0 mm 162.0 W/m2
05:46 30.4 °C 6.9 °C 1022.2 hPa East 9.7 km/h 27.4 km/h 23% 0 mm 1252.0 W/m2
05:51 30.4 °C 6.9 °C 1022.6 hPa NE 7.9 km/h 19.3 km/h 23% 0 mm 192.0 W/m2
05:57 30.3 °C 6.2 °C 1022.2 hPa Calm   6.4 km/h 22% 0 mm 1121.0 W/m2
06:04 31 °C 6.8 °C 1022.2 hPa North 7.9 km/h 16.1 km/h 22% 0 mm 1185.0 W/m2
06:06 31.1 °C 6.2 °C 1022.2 hPa NW 9.7 km/h 19.3 km/h 21% 0 mm 1187.0 W/m2
06:12 31.6 °C 6.6 °C 1022.2 hPa NE 11.1 km/h 12.9 km/h 21% 0 mm 207.0 W/m2
06:18 31.8 °C 6.1 °C 1022.2 hPa SE 4.7 km/h 12.9 km/h 20% 0 mm 1185.0 W/m2
06:24 31.7 °C 6 °C 1021.9 hPa NNW 1.4 km/h 11.3 km/h 20% 0 mm 174.0 W/m2
06:26 31.7 °C 6 °C 1021.9 hPa ESE 1.4 km/h 9.7 km/h 20% 0 mm 174.0 W/m2
06:31 31.9 °C 5.4 °C 1021.9 hPa ESE 7.9 km/h 11.3 km/h 19% 0 mm 301.0 W/m2
06:36 31.9 °C 5.4 °C 1021.9 hPa North 1.4 km/h 4.8 km/h 19% 0 mm 237.0 W/m2
06:41 32 °C 6.2 °C 1021.9 hPa NE 11.1 km/h 11.3 km/h 20% 0 mm 346.0 W/m2
06:43 32.1 °C 5.6 °C 1021.9 hPa Calm   17.7 km/h 19% 0 mm 1137.0 W/m2
06:46 32.2 °C 5.7 °C 1021.6 hPa ESE 11.1 km/h 12.9 km/h 19% 0 mm 1125.0 W/m2
06:51 32.6 °C 5.2 °C 1021.6 hPa SE 6.4 km/h 12.9 km/h 18% 0 mm 1106.0 W/m2
06:52 32.6 °C 6 °C 1021.6 hPa East 1.4 km/h 11.3 km/h 19% 0 mm 1085.0 W/m2
06:53 32.6 °C 6 °C 1021.6 hPa North 4.7 km/h 14.5 km/h 19% 0 mm 1085.0 W/m2
06:59 32.8 °C 4.5 °C 1021.6 hPa SE 3.2 km/h 19.3 km/h 17% 0 mm 1079.0 W/m2
07:05 32.8 °C 3.7 °C 1021.6 hPa ENE 3.2 km/h 16.1 km/h 16% 0 mm 1083.0 W/m2
07:11 33.1 °C 3.9 °C 1021.2 hPa NNE 3.2 km/h 8 km/h 16% 0 mm 1085.0 W/m2
07:17 33.3 °C 3.2 °C 1021.2 hPa Calm   8 km/h 15% 0 mm 1074.0 W/m2
07:21 33.4 °C 3.2 °C 1021.2 hPa Calm   8 km/h 15% 0 mm 1081.0 W/m2
07:26 33.4 °C 4.2 °C 1021.2 hPa SW 3.2 km/h 4.8 km/h 16% 0 mm 1116.0 W/m2
07:31 33.4 °C 5 °C 1020.9 hPa NNW 1.4 km/h 14.5 km/h 17% 0 mm 1097.0 W/m2
07:36 33.7 °C 5.3 °C 1021.2 hPa NNE 6.4 km/h 19.3 km/h 17% 0 mm 1086.0 W/m2
07:42 33.9 °C 4.6 °C 1020.9 hPa NNE 1.4 km/h 9.7 km/h 16% 0 mm 1041.0 W/m2
07:45 33.8 °C 5.3 °C 1020.9 hPa NW 7.9 km/h 14.5 km/h 17% 0 mm 1028.0 W/m2
07:51 34 °C 5.5 °C 1020.9 hPa SE 4.7 km/h 8 km/h 17% 0 mm 1030.0 W/m2
07:56 34.2 °C 4.8 °C 1020.5 hPa SE 7.9 km/h 9.7 km/h 16% 0 mm 1007.0 W/m2
08:01 34.3 °C 4 °C 1020.9 hPa NE 3.2 km/h 14.5 km/h 15% 0 mm 998.0 W/m2
08:02 34.3 °C 4 °C 1020.9 hPa ENE 1.4 km/h 11.3 km/h 15% 0 mm 997.0 W/m2
08:07 34.6 °C 4.2 °C 1020.5 hPa Calm   6.4 km/h 15% 0 mm 1002.0 W/m2
08:11 34.6 °C 4.2 °C 1020.5 hPa NNE 4.7 km/h 11.3 km/h 15% 0 mm 979.0 W/m2
08:12 34.6 °C 4.2 °C 1020.5 hPa NNW 1.4 km/h 9.7 km/h 15% 0 mm 984.0 W/m2
08:17 34.7 °C 4.3 °C 1020.5 hPa NNE 7.9 km/h 16.1 km/h 15% 0 mm 965.0 W/m2
08:24 34.7 °C 4.3 °C 1020.5 hPa NW 1.4 km/h 8 km/h 15% 0 mm 923.0 W/m2
08:27 34.8 °C 5.3 °C 1020.5 hPa SE 9.7 km/h 19.3 km/h 16% 0 mm 912.0 W/m2
08:32 34.8 °C 3.4 °C 1020.5 hPa NNE 14.3 km/h 14.5 km/h 14% 0 mm 127.0 W/m2
08:38 34.3 °C 4 °C 1020.2 hPa East 1.4 km/h 4.8 km/h 15% 0 mm 911.0 W/m2
08:43 34.3 °C 4.9 °C 1020.2 hPa NE 7.9 km/h 16.1 km/h 16% 0 mm 891.0 W/m2
08:53 34.3 °C 5.7 °C 1020.2 hPa SE 4.7 km/h 6.4 km/h 17% 0 mm 856.0 W/m2
08:59 34.4 °C 6.7 °C 1019.9 hPa NE 4.7 km/h 16.1 km/h 18% 0 mm 816.0 W/m2
09:04 34.1 °C 5.6 °C 1019.9 hPa NNE 6.4 km/h 14.5 km/h 17% 0 mm 111.0 W/m2
09:09 33.7 °C 6.1 °C 1019.9 hPa NE 6.4 km/h 11.3 km/h 18% 0 mm 786.0 W/m2
09:14 33.7 °C 5.3 °C 1019.9 hPa NE 1.4 km/h 6.4 km/h 17% 0 mm 786.0 W/m2
09:21 34.1 °C 6.4 °C 1019.9 hPa ESE 4.7 km/h 17.7 km/h 18% 0 mm 809.0 W/m2
09:28 34.4 °C 6.7 °C 1019.9 hPa NE 3.2 km/h 11.3 km/h 18% 0 mm 197.0 W/m2
09:33 34.3 °C 6.6 °C 1019.9 hPa NE 1.4 km/h 14.5 km/h 18% 0 mm 828.0 W/m2
09:40 34.4 °C 5.8 °C 1019.9 hPa NNE 7.9 km/h 11.3 km/h 17% 0 mm 789.0 W/m2
09:41 34.3 °C 5.7 °C 1019.9 hPa ESE 1.4 km/h 11.3 km/h 17% 0 mm 789.0 W/m2
09:42 34.3 °C 6.6 °C 1019.9 hPa East 4.7 km/h 19.3 km/h 18% 0 mm 192.0 W/m2
09:47 33.6 °C 8.9 °C 1019.9 hPa North 6.4 km/h 27.4 km/h 22% 0 mm 656.0 W/m2
09:51 32.7 °C 8.9 °C 1019.9 hPa ENE 6.4 km/h 25.7 km/h 23% 0 mm 120.0 W/m2
09:52 32.4 °C 9.2 °C 1019.9 hPa SE 7.9 km/h 16.1 km/h 24% 0 mm 121.0 W/m2
09:57 31.1 °C 8.8 °C 1019.9 hPa SSE 13 km/h 25.7 km/h 25% 0 mm 120.0 W/m2
10:03 30.1 °C 9 °C 1019.9 hPa NE 24.1 km/h 24.1 km/h 27% 0 mm 116.0 W/m2
10:08 29.6 °C 8.1 °C 1019.9 hPa ENE 11.1 km/h 33.8 km/h 26% 0 mm 111.0 W/m2
10:13 29.4 °C 8.4 °C 1019.9 hPa East 25.9 km/h 27.4 km/h 27% 0 mm 109.0 W/m2
10:16 29.2 °C 8.3 °C 1019.9 hPa East 11.1 km/h 17.7 km/h 27% 0 mm 116.0 W/m2
10:18 29.1 °C 8.7 °C 1019.9 hPa NE 20.9 km/h 27.4 km/h 28% 0 mm 120.0 W/m2
10:20 29.1 °C 8.2 °C 1003.9 hPa NE 6.4 km/h 27.4 km/h 27% 0 mm 118.0 W/m2
10:26 28.9 °C 8 °C 1019.9 hPa ESE 7.9 km/h 24.1 km/h 27% 0 mm 109.0 W/m2
10:31 28.8 °C 7.9 °C 1019.9 hPa NNE 6.4 km/h 24.1 km/h 27% 0 mm 107.0 W/m2
10:33 28.7 °C 8.4 °C 1019.9 hPa NNW 4.7 km/h 16.1 km/h 28% 0 mm 165.0 W/m2
10:40 28.4 °C 11 °C 1019.9 hPa ENE 16.3 km/h 19.3 km/h 34% 0 mm 98.0 W/m2
10:45 28.1 °C 9.9 °C 1020.2 hPa ESE 6.4 km/h 20.9 km/h 32% 0 mm 221.0 W/m2
10:46 28.1 °C 9.9 °C 1020.2 hPa ESE 4.7 km/h 12.9 km/h 32% 0 mm 306.0 W/m2
10:47 28.1 °C 10.8 °C 1020.2 hPa East 4.7 km/h 12.9 km/h 34% 0 mm 329.0 W/m2
10:51 28.1 °C 9.9 °C 1019.9 hPa NE 6.4 km/h 19.3 km/h 32% 0 mm 427.0 W/m2
10:56 28.4 °C 9.2 °C 1019.9 hPa SE 7.9 km/h 12.9 km/h 30% 0 mm 413.0 W/m2
10:57 28.5 °C 8.7 °C 1019.9 hPa ENE 13 km/h 19.3 km/h 29% 0 mm 410.0 W/m2
11:03 28.8 °C 10 °C 1019.9 hPa East 3.2 km/h 14.5 km/h 31% 0 mm 390.0 W/m2
11:08 28.8 °C 9.5 °C 1019.9 hPa ENE 11.1 km/h 16.1 km/h 30% 0 mm 100.0 W/m2
11:13 28.5 °C 10.2 °C 1020.2 hPa ESE 3.2 km/h 16.1 km/h 32% 0 mm 334.0 W/m2
11:16 28.5 °C 10.7 °C 1020.5 hPa NNE 1.4 km/h 16.1 km/h 33% 0 mm 290.0 W/m2
11:17 28.5 °C 10.7 °C 1020.5 hPa NNE 11.1 km/h 16.1 km/h 33% 0 mm 248.0 W/m2
11:23 28.3 °C 10.5 °C 1020.5 hPa NNW 9.7 km/h 11.3 km/h 33% 0 mm 105.0 W/m2
11:27 28 °C 10.2 °C 1005 hPa North 9.7 km/h 11.3 km/h 33% 0 mm 84.0 W/m2
11:31 27.7 °C 10.4 °C 1020.5 hPa NNW 9.7 km/h 14.5 km/h 34% 0 mm 65.0 W/m2
11:32 27.7 °C 10.4 °C 1020.5 hPa NW 4.7 km/h 14.5 km/h 34% 0 mm 53.0 W/m2
11:38 27.4 °C 10.1 °C 1020.9 hPa North 3.2 km/h 6.4 km/h 34% 0 mm 33.0 W/m2
11:41 27.3 °C 10.1 °C 1020.9 hPa NE 4.7 km/h 6.4 km/h 34% 0 mm 30.0 W/m2
11:42 27.3 °C 10.1 °C 1020.9 hPa ENE 3.2 km/h 6.4 km/h 34% 0 mm 30.0 W/m2
11:48 27.2 °C 10 °C 1020.9 hPa ENE 3.2 km/h 9.7 km/h 34% 0 mm 19.0 W/m2
11:50 27.2 °C 10 °C 1020.9 hPa Calm   6.4 km/h 34% 0 mm 14.0 W/m2
11:51 27.1 °C 9.9 °C 1020.9 hPa ENE 1.4 km/h 4.8 km/h 34% 0 mm 14.0 W/m2
11:56 27.1 °C 10.3 °C 1021.2 hPa East 6.4 km/h 8 km/h 35% 0 mm 9.0 W/m2
12:02 27.1 °C 10.3 °C 1021.2 hPa Calm   1.6 km/h 35% 0 mm 7.0 W/m2
12:07 27.1 °C 9.9 °C 1021.6 hPa Calm   1.6 km/h 34% 0 mm 5.0 W/m2
12:12 27 °C 9.8 °C 1021.6 hPa Calm   1.6 km/h 34% 0 mm 5.0 W/m2
12:19 26.9 °C 9.7 °C 1021.9 hPa West 3.2 km/h 8 km/h 34% 0 mm 0.0 W/m2
12:21 27 °C 9.8 °C 1021.9 hPa SSW 1.4 km/h 3.2 km/h 34% 0 mm 0.0 W/m2
12:28 25.8 °C 11.2 °C 1022.2 hPa SW 16.3 km/h 19.3 km/h 40% 0 mm 0.0 W/m2
12:30 25.6 °C 11.4 °C 1006.3 hPa SW 6.4 km/h 11.3 km/h 41% 0 mm 0.0 W/m2
12:31 26.2 °C 11.2 °C 1022.2 hPa SW 11.1 km/h 17.7 km/h 39% 0 mm 0.0 W/m2
12:38 25.1 °C 11.6 °C 1022.2 hPa SSW 11.1 km/h 12.9 km/h 43% 0 mm 0.0 W/m2
12:44 24.7 °C 11.3 °C 1022.2 hPa SSW 6.4 km/h 11.3 km/h 43% 0 mm 0.0 W/m2
12:47 24.7 °C 11.3 °C 1022.6 hPa West 1.4 km/h 9.7 km/h 43% 0 mm 0.0 W/m2
12:53 24.5 °C 11.1 °C 1022.6 hPa SW 1.4 km/h 8 km/h 43% 0 mm 0.0 W/m2
12:58 24.3 °C 10.6 °C 1022.6 hPa West 1.4 km/h 11.3 km/h 42% 0 mm 0.0 W/m2
13:05 24.2 °C 10.5 °C 1022.6 hPa WSW 3.2 km/h 9.7 km/h 42% 0 mm 0.0 W/m2
13:11 24.2 °C 10.5 °C 1022.9 hPa WSW 1.4 km/h 6.4 km/h 42% 0 mm 0.0 W/m2
13:17 24 °C 10.6 °C 1022.9 hPa Calm     43% 0 mm 0.0 W/m2
13:22 23.9 °C 10.6 °C 1022.9 hPa Calm   1.6 km/h 43% 0 mm 0.0 W/m2
13:27 23.9 °C 10.6 °C 1023.2 hPa SE 3.2 km/h 6.4 km/h 43% 0 mm 0.0 W/m2
13:32 23.9 °C 11.2 °C 1023.2 hPa ESE 1.4 km/h 9.7 km/h 45% 0 mm 0.0 W/m2
13:33 23.9 °C 11.2 °C 1023.6 hPa Calm   8 km/h 45% 0 mm 0.0 W/m2
13:37 23.9 °C 10.9 °C 1023.2 hPa ESE 1.4 km/h 4.8 km/h 44% 0 mm 0.0 W/m2
13:38 23.9 °C 10.6 °C 1023.2 hPa SE 3.2 km/h 4.8 km/h 43% 0 mm 0.0 W/m2
13:40 23.9 °C 10.6 °C 1023.2 hPa SSW 4.7 km/h 9.7 km/h 43% 0 mm 0.0 W/m2
13:48 23.9 °C 10.2 °C 1023.2 hPa SSW 7.9 km/h 11.3 km/h 42% 0 mm 0.0 W/m2
13:54 24 °C 10.3 °C 1022.9 hPa West 1.4 km/h 6.4 km/h 42% 0 mm 0.0 W/m2
13:57 24 °C 10.3 °C 1023.2 hPa Calm     42% 0 mm 0.0 W/m2
14:03 24.1 °C 10 °C 1023.2 hPa Calm     41% 0 mm 0.0 W/m2
14:09 24.1 °C 10.4 °C 1023.2 hPa Calm     42% 0 mm 0.0 W/m2
14:15 24.1 °C 10.4 °C 1023.2 hPa Calm     42% 0 mm 0.0 W/m2
14:20 24.2 °C 10.5 °C 1023.2 hPa West 1.4 km/h 4.8 km/h 42% 0 mm 0.0 W/m2
14:25 24.2 °C 10.5 °C 1023.2 hPa WNW 1.4 km/h 1.6 km/h 42% 0 mm 0.0 W/m2
14:28 24.2 °C 10.5 °C 1023.2 hPa WNW 1.4 km/h 9.7 km/h 42% 0 mm 0.0 W/m2
14:32 24.2 °C 10.8 °C 1023.6 hPa SSW 3.2 km/h 3.2 km/h 43% 0 mm 0.0 W/m2
14:37 24.2 °C 10.5 °C 1023.6 hPa Calm   3.2 km/h 42% 0 mm 0.0 W/m2
14:38 24.2 °C 10.5 °C 1023.6 hPa Calm   3.2 km/h 42% 0 mm 0.0 W/m2
14:42 24.2 °C 9.4 °C 1023.9 hPa SSE 6.4 km/h 11.3 km/h 39% 0 mm 0.0 W/m2
14:43 24.2 °C 9.4 °C 1023.6 hPa Calm   11.3 km/h 39% 0 mm 0.0 W/m2
14:47 24.2 °C 9.4 °C 1023.6 hPa Calm   3.2 km/h 39% 0 mm 0.0 W/m2
14:51 24.2 °C 9.4 °C 1023.6 hPa SSW 7.9 km/h 11.3 km/h 39% 0 mm 0.0 W/m2
14:56 24.2 °C 9.7 °C 1023.9 hPa SSW 1.4 km/h 9.7 km/h 40% 0 mm 0.0 W/m2
15:01 24 °C 9.6 °C 1023.6 hPa Calm   6.4 km/h 40% 0 mm 0.0 W/m2
15:03 23.9 °C 9.5 °C 1023.6 hPa SW 3.2 km/h 9.7 km/h 40% 0 mm 0.0 W/m2
15:06 23.8 °C 9.4 °C 1023.6 hPa SSW 7.9 km/h 8 km/h 40% 0 mm 0.0 W/m2
15:08 23.8 °C 9.8 °C 1023.6 hPa SW 6.4 km/h 6.4 km/h 41% 0 mm 0.0 W/m2
15:12 23.7 °C 9.7 °C 1023.6 hPa ESE 3.2 km/h 8 km/h 41% 0 mm 0.0 W/m2
15:17 23.7 °C 9.7 °C 1023.6 hPa Calm   8 km/h 41% 0 mm 0.0 W/m2
15:24 23.7 °C 9.7 °C 1023.6 hPa SSW 1.4 km/h 4.8 km/h 41% 0 mm 0.0 W/m2
15:29 23.6 °C 9.6 °C 1023.6 hPa Calm   3.2 km/h 41% 0 mm 0.0 W/m2
15:34 23.6 °C 9.6 °C 1023.6 hPa SSW 1.4 km/h 1.6 km/h 41% 0 mm 0.0 W/m2
15:40 23.5 °C 9.8 °C 1023.6 hPa SE 3.2 km/h 4.8 km/h 42% 0 mm 0.0 W/m2
15:44 23.4 °C 9.8 °C 1023.6 hPa Calm   4.8 km/h 42% 0 mm 0.0 W/m2
15:47 23.4 °C 9.8 °C 1023.6 hPa Calm   1.6 km/h 42% 0 mm 0.0 W/m2
15:51 23.3 °C 9.7 °C 1023.6 hPa Calm     42% 0 mm 0.0 W/m2
15:57 23.3 °C 9.7 °C 1023.6 hPa Calm     42% 0 mm 0.0 W/m2
16:00 23.2 °C 9.6 °C 1023.6 hPa Calm   1.6 km/h 42% 0 mm 0.0 W/m2
16:05 23.2 °C 9.6 °C 1023.6 hPa Calm     42% 0 mm 0.0 W/m2
16:09 23.1 °C 9.5 °C 1007.7 hPa Calm     42% 0 mm 0.0 W/m2
16:10 23.1 °C 9.5 °C 1007.7 hPa Calm     42% 0 mm 0.0 W/m2
16:15 22.9 °C 9.7 °C 1023.6 hPa Calm     43% 0 mm 0.0 W/m2
16:20 22.8 °C 9.6 °C 1023.6 hPa Calm   1.6 km/h 43% 0 mm 0.0 W/m2
16:25 22.6 °C 9.7 °C 1023.6 hPa Calm   3.2 km/h 44% 0 mm 0.0 W/m2
16:30 22.4 °C 9.5 °C 1023.6 hPa Calm   1.6 km/h 44% 0 mm 0.0 W/m2
16:34 22.3 °C 9.5 °C 1023.6 hPa Calm   1.6 km/h 44% 0 mm 0.0 W/m2
16:35 22.3 °C 9.5 °C 1023.6 hPa Calm   1.6 km/h 44% 0 mm 0.0 W/m2
16:40 22.2 °C 9.4 °C 1023.6 hPa Calm   1.6 km/h 44% 0 mm 0.0 W/m2
16:43 22.1 °C 9.6 °C 1023.6 hPa Calm   1.6 km/h 45% 0 mm 0.0 W/m2
16:44 22.1 °C 9.6 °C 1007.7 hPa Calm   1.6 km/h 45% 0 mm 0.0 W/m2
16:46 22 °C 9.5 °C 1007.3 hPa East 3.2 km/h 3.2 km/h 45% 0 mm 0.0 W/m2
16:47 21.9 °C 9.4 °C 1023.2 hPa Calm   3.2 km/h 45% 0 mm 0.0 W/m2
16:50 22 °C 9.5 °C 1023.6 hPa Calm   1.6 km/h 45% 0 mm 0.0 W/m2
16:56 21.8 °C 10 °C 1023.2 hPa Calm   1.6 km/h 47% 0 mm 0.0 W/m2
16:57 21.7 °C 9.9 °C 1023.2 hPa Calm   1.6 km/h 47% 0 mm 0.0 W/m2
17:01 21.6 °C 10.1 °C 1023.2 hPa Calm   4.8 km/h 48% 0 mm 0.0 W/m2
17:06 21.4 °C 10.2 °C 1023.2 hPa Calm   6.4 km/h 49% 0 mm 0.0 W/m2
17:11 21.3 °C 10.5 °C 1023.2 hPa Calm   3.2 km/h 50% 0 mm 0.0 W/m2
17:17 21.2 °C 10.4 °C 1023.2 hPa Calm   4.8 km/h 50% 0 mm 0.0 W/m2
17:23 21.1 °C 10.6 °C 1023.2 hPa Calm   1.6 km/h 51% 0 mm 0.0 W/m2
17:28 20.9 °C 10.4 °C 1023.2 hPa Calm   4.8 km/h 51% 0 mm 0.0 W/m2
17:37 20.7 °C 10.2 °C 1023.2 hPa Calm     51% 0 mm 0.0 W/m2
17:42 20.6 °C 10.1 °C 1023.2 hPa Calm     51% 0 mm 0.0 W/m2
17:44 20.6 °C 10.1 °C 1023.2 hPa Calm     51% 0 mm 0.0 W/m2
17:50 20.4 °C 9.9 °C 1023.2 hPa Calm     51% 0 mm 0.0 W/m2
17:56 20.4 °C 9.9 °C 1022.9 hPa Calm     51% 0 mm 0.0 W/m2
18:01 20.3 °C 9.8 °C 1022.9 hPa Calm     51% 0 mm 0.0 W/m2
18:06 20.3 °C 9.8 °C 1022.9 hPa Calm     51% 0 mm 0.0 W/m2
18:12 20.3 °C 9.8 °C 1022.9 hPa Calm     51% 0 mm 0.0 W/m2
18:17 20.3 °C 9.8 °C 1023.2 hPa Calm     51% 0 mm 0.0 W/m2
18:24 20.2 °C 9.4 °C 1022.9 hPa Calm     50% 0 mm 0.0 W/m2
18:25 20.2 °C 9.4 °C 1023.2 hPa Calm     50% 0 mm 0.0 W/m2
18:28 20.2 °C 9.4 °C 1023.2 hPa Calm     50% 0 mm 0.0 W/m2
18:35 20.1 °C 9.4 °C 1022.9 hPa Calm     50% 0 mm 0.0 W/m2
18:40 19.9 °C 9.2 °C 1022.9 hPa Calm     50% 0 mm 0.0 W/m2
18:47 19.8 °C 9.4 °C 1022.9 hPa Calm   1.6 km/h 51% 0 mm 0.0 W/m2
18:52 19.7 °C 9.6 °C 1022.9 hPa Calm   4.8 km/h 52% 0 mm 0.0 W/m2
18:53 19.8 °C 9.4 °C 1022.9 hPa Calm   1.6 km/h 51% 0 mm 0.0 W/m2
18:58 19.7 °C 10.1 °C 1022.9 hPa ENE 4.7 km/h 4.8 km/h 54% 0 mm 0.0 W/m2
19:03 19.6 °C 9.8 °C 1022.9 hPa Calm   4.8 km/h 53% 0 mm 0.0 W/m2
19:09 19.4 °C 9.6 °C 1023.2 hPa SE 3.2 km/h 4.8 km/h 53% 0 mm 0.0 W/m2
19:16 19.3 °C 9.5 °C 1023.2 hPa Calm   1.6 km/h 53% 0 mm 0.0 W/m2
19:22 19.3 °C 9.5 °C 1023.2 hPa ESE 1.4 km/h 4.8 km/h 53% 0 mm 0.0 W/m2
19:28 19.3 °C 9.5 °C 1023.2 hPa ENE 1.4 km/h 3.2 km/h 53% 0 mm 0.0 W/m2
19:33 19.2 °C 9.1 °C 1023.2 hPa Calm   3.2 km/h 52% 0 mm 0.0 W/m2
19:38 19.2 °C 8.8 °C 1023.2 hPa Calm   1.6 km/h 51% 0 mm 0.0 W/m2
19:44 19.2 °C 8.8 °C 1023.2 hPa Calm   1.6 km/h 51% 0 mm 0.0 W/m2
19:49 19.2 °C 8.8 °C 1023.2 hPa Calm   3.2 km/h 51% 0 mm 0.0 W/m2
19:54 19.1 °C 9 °C 1023.2 hPa East 1.4 km/h 8 km/h 52% 0 mm 0.0 W/m2
20:00 19.1 °C 9 °C 1023.2 hPa Calm   4.8 km/h 52% 0 mm 0.0 W/m2
20:05 19.1 °C 9 °C 1023.2 hPa East 1.4 km/h 6.4 km/h 52% 0 mm 0.0 W/m2
20:10 19 °C 8.9 °C 1023.2 hPa ESE 3.2 km/h 4.8 km/h 52% 0 mm 0.0 W/m2
20:15 19 °C 8.9 °C 1023.2 hPa Calm   3.2 km/h 52% 0 mm 0.0 W/m2
20:16 19 °C 8.9 °C 1023.2 hPa Calm   3.2 km/h 52% 0 mm 0.0 W/m2
20:21 18.9 °C 8.8 °C 1023.2 hPa Calm   4.8 km/h 52% 0 mm 0.0 W/m2
20:27 18.9 °C 8.8 °C 1023.2 hPa Calm   4.8 km/h 52% 0 mm 0.0 W/m2
20:32 18.9 °C 8.8 °C 1023.2 hPa Calm   3.2 km/h 52% 0 mm 0.0 W/m2
20:35 18.9 °C 8.8 °C 1023.2 hPa Calm   4.8 km/h 52% 0 mm 0.0 W/m2
20:38 18.9 °C 9.1 °C 1023.2 hPa Calm   3.2 km/h 53% 0 mm 0.0 W/m2
20:42 18.9 °C 9.1 °C 1023.2 hPa ENE 1.4 km/h 4.8 km/h 53% 0 mm 0.0 W/m2
20:43 18.9 °C 9.1 °C 1023.2 hPa ENE 1.4 km/h 4.8 km/h 53% 0 mm 0.0 W/m2
20:48 18.9 °C 9.1 °C 1023.2 hPa ESE 3.2 km/h 4.8 km/h 53% 0 mm 0.0 W/m2
20:50 18.9 °C 9.1 °C 1023.2 hPa Calm   6.4 km/h 53% 0 mm 0.0 W/m2
20:55 18.9 °C 9.1 °C 1023.2 hPa East 3.2 km/h 3.2 km/h 53% 0 mm 0.0 W/m2
21:01 18.9 °C 8.8 °C 1023.2 hPa ENE 4.7 km/h 4.8 km/h 52% 0 mm 0.0 W/m2
21:06 18.8 °C 8.4 °C 1023.2 hPa SE 3.2 km/h 3.2 km/h 51% 0 mm 0.0 W/m2
21:07 18.8 °C 8.4 °C 1023.2 hPa East 4.7 km/h 8 km/h 51% 0 mm 0.0 W/m2
21:13 18.8 °C 8.7 °C 1023.2 hPa East 1.4 km/h 4.8 km/h 52% 0 mm 0.0 W/m2
21:18 18.7 °C 8.6 °C 1023.2 hPa East 1.4 km/h 6.4 km/h 52% 0 mm 0.0 W/m2
21:23 18.6 °C 8.8 °C 1023.2 hPa East 3.2 km/h 3.2 km/h 53% 0 mm 0.0 W/m2
21:28 18.6 °C 8.8 °C 1023.2 hPa ENE 1.4 km/h 4.8 km/h 53% 0 mm 0.0 W/m2
21:33 18.5 °C 8.7 °C 1023.2 hPa East 3.2 km/h 6.4 km/h 53% 0 mm 0.0 W/m2
21:36 18.5 °C 8.5 °C 1023.2 hPa East 1.4 km/h 4.8 km/h 52% 0 mm 0.0 W/m2
21:38 18.4 °C 8.6 °C 1023.2 hPa ENE 1.4 km/h 6.4 km/h 53% 0 mm 0.0 W/m2
21:44 18.4 °C 8.6 °C 1023.2 hPa Calm   4.8 km/h 53% 0 mm 0.0 W/m2
21:47 18.4 °C 8.6 °C 1023.2 hPa ENE 1.4 km/h 3.2 km/h 53% 0 mm 0.0 W/m2
21:49 18.4 °C 8.6 °C 1023.2 hPa Calm   4.8 km/h 53% 0 mm 0.0 W/m2
21:51 18.4 °C 8.6 °C 1023.2 hPa Calm   3.2 km/h 53% 0 mm 0.0 W/m2
21:52 18.3 °C 8.6 °C 1023.2 hPa ESE 1.4 km/h 3.2 km/h 53% 0 mm 0.0 W/m2
21:57 18.3 °C 8.6 °C 1023.6 hPa Calm   1.6 km/h 53% 0 mm 0.0 W/m2
22:02 18.2 °C 8.5 °C 1023.6 hPa East 1.4 km/h 3.2 km/h 53% 0 mm 0.0 W/m2
22:07 18.2 °C 8.5 °C 1023.6 hPa Calm   4.8 km/h 53% 0 mm 0.0 W/m2
22:12 18.2 °C 8.5 °C 1023.6 hPa Calm   6.4 km/h 53% 0 mm 0.0 W/m2
22:17 18.2 °C 8.5 °C 1023.9 hPa Calm   4.8 km/h 53% 0 mm 0.0 W/m2
22:23 18.2 °C 8.5 °C 1023.9 hPa East 1.4 km/h 3.2 km/h 53% 0 mm 0.0 W/m2
22:31 18.1 °C 8.6 °C 1023.9 hPa Calm   4.8 km/h 54% 0 mm 0.0 W/m2
22:36 18 °C 8.6 °C 1023.9 hPa Calm   4.8 km/h 54% 0 mm 0.0 W/m2
22:41 17.9 °C 8.5 °C 1024.3 hPa Calm   3.2 km/h 54% 0 mm 0.0 W/m2
22:46 17.9 °C 8.5 °C 1024.3 hPa Calm   4.8 km/h 54% 0 mm 0.0 W/m2
22:50 17.8 °C 8.4 °C 1024.3 hPa Calm   3.2 km/h 54% 0 mm 0.0 W/m2
22:55 17.8 °C 8.6 °C 1024.3 hPa East 1.4 km/h 1.6 km/h 55% 0 mm 0.0 W/m2
23:02 17.7 °C 8.5 °C 1024.3 hPa Calm   3.2 km/h 55% 0 mm 0.0 W/m2
23:03 17.8 °C 8.6 °C 1024.3 hPa Calm   3.2 km/h 55% 0 mm 0.0 W/m2
23:08 17.7 °C 8.5 °C 1024.3 hPa Calm   1.6 km/h 55% 0 mm 0.0 W/m2
23:14 17.6 °C 8.7 °C 1024.3 hPa ENE 1.4 km/h 3.2 km/h 56% 0 mm 0.0 W/m2
23:15 17.6 °C 8.7 °C 1024.6 hPa East 1.4 km/h 6.4 km/h 56% 0 mm 0.0 W/m2
23:20 17.6 °C 8.7 °C 1024.6 hPa ESE 4.7 km/h 6.4 km/h 56% 0 mm 7.0 W/m2
23:25 17.5 °C 8.6 °C 1024.6 hPa NE 1.4 km/h 9.7 km/h 56% 0 mm 9.0 W/m2
23:32 17.4 °C 8.5 °C 1024.6 hPa East 4.7 km/h 6.4 km/h 56% 0 mm 11.0 W/m2
23:34 17.4 °C 8.5 °C 1024.6 hPa East 1.4 km/h 4.8 km/h 56% 0 mm 12.0 W/m2
23:37 17.4 °C 8.5 °C 1024.6 hPa ENE 1.4 km/h 3.2 km/h 56% 0 mm 12.0 W/m2
23:38 17.3 °C 8.4 °C 1024.6 hPa Calm   3.2 km/h 56% 0 mm 14.0 W/m2
23:43 17.3 °C 8.4 °C 1024.6 hPa Calm   6.4 km/h 56% 0 mm 16.0 W/m2
23:48 17.2 °C 8.3 °C 1024.9 hPa East 4.7 km/h 6.4 km/h 56% 0 mm 18.0 W/m2
23:55 17.2 °C 8.3 °C 1024.9 hPa East 1.4 km/h 3.2 km/h 56% 0 mm 19.0 W/m2
23:59 17.3 °C 8.7 °C 1024.9 hPa Calm   3.2 km/h 57% 0 mm 19.0 W/m2
Olympia, Windhoek, Namibia
Compliments of Weather Underground - 3.5 mb